Powrót do katalogu

STARLINK-4109

AktywnyŁącznośćVLEO
NORAD 53268·PAYLOAD·🇺🇸 United States

Wystrzelony Jul 24, 2022 z Cape Canaveral Space Force Station

Loading…

Następne Przeloty (najbliższe 24 godziny)

TLE

ŚwieżeSource: CelesTrak SupGP

Epoka: Sep 14, 2026, 20:49 UTC

1 53268C 22086AC  26257.86784722  .00050830  00000+0  15017-2 0  2576
2 53268  53.1597  51.8576 0001236  63.1732 357.8777 15.34367635    10

Śledź STARLINK-4109 w czasie rzeczywistym z AllMySat

Download on the App Store